W5CGC Weather Reports


time (UTC)temp
C
wind
direction
speed
KPH
gust
KPH
rain 1hr
cm
rain 24hr
cm
rain mn
cm
humidity
%
barometer
mb
20260902024545 30 0 0.0 0.0 0.00 0.00 0.00 41 1013.5
20260902023038 30 0 0.0 0.0 0.00 0.00 0.00 40 1013.4
20260902021538 30 0 0.0 0.0 0.00 0.00 0.00 40 1013.1
20260902020042 31 0 0.0 0.0 0.00 0.00 0.00 40 1013.0
20260902014540 31 0 0.0 0.0 0.00 0.00 0.00 40 1012.9
20260902013040 31 0 0.0 0.0 0.00 0.00 0.00 37 1012.7
20260902011544 32 0 0.0 0.0 0.00 0.00 0.00 36 1012.5
20260902010041 32 0 0.0 0.0 0.00 0.00 0.00 35 1012.5
20260902004541 33 0 0.0 0.0 0.00 0.00 0.00 33 1012.5
20260902003046 34 0 0.0 1.6 0.00 0.00 0.00 31 1012.5
20260902001542 34 0 0.0 3.2 0.00 0.00 0.00 30 1012.7
20260902000040 35 151 0.0 3.2 0.00 0.00 0.00 29 1012.8
20260901234550 35 0 0.0 4.8 0.00 0.00 0.00 28 1012.8
20260901233044 35 171 1.6 4.8 0.00 0.00 0.00 28 1012.9
20260901231541 35 167 0.0 4.8 0.00 0.00 0.00 29 1013.0
20260901230041 35 180 3.2 6.4 0.00 0.00 0.00 29 1013.0
20260901224551 35 0 0.0 4.8 0.00 0.00 0.00 28 1013.0
20260901223040 36 168 0.0 4.8 0.00 0.00 0.00 27 1013.0
20260901221544 36 174 1.6 6.4 0.00 0.00 0.00 26 1013.1
20260901220042 36 166 3.2 8.0 0.00 0.00 0.00 25 1013.1
20260901214545 36 167 1.6 6.4 0.00 0.00 0.00 26 1013.2
20260901213044 36 169 0.0 6.4 0.00 0.00 0.00 26 1013.3
20260901211542 36 174 1.6 6.4 0.00 0.00 0.00 26 1013.4
20260901210041 36 0 0.0 6.4 0.00 0.00 0.00 27 1013.6
20260901204540 36 165 1.6 6.4 0.00 0.00 0.00 27 1013.7
20260901203048 36 171 0.0 8.0 0.00 0.00 0.00 29 1013.8
20260901201540 35 205 3.2 8.0 0.00 0.00 0.00 31 1014.1
20260901200059 35 162 1.6 6.4 0.00 0.00 0.00 30 1014.4
20260901194549 35 217 1.6 8.0 0.00 0.00 0.00 31 1014.4
20260901193044 35 171 3.2 8.0 0.00 0.00 0.00 30 1014.6
20260901191545 35 197 1.6 8.0 0.00 0.00 0.00 30 1014.8
20260901190051 35 181 1.6 9.7 0.00 0.00 0.00 32 1015.0
20260901184546 35 148 1.6 4.8 0.00 0.00 0.00 33 1015.3
20260901183041 34 162 0.0 4.8 0.00 0.00 0.00 34 1015.7
20260901181549 34 174 1.6 6.4 0.00 0.00 0.00 33 1015.8
20260901180043 34 180 3.2 8.0 0.00 0.00 0.00 34 1016.1
20260901174543 35 151 1.6 8.0 0.00 0.00 0.00 33 1016.2
20260901173047 35 167 0.0 4.8 0.00 0.00 0.00 32 1016.3
20260901171556 35 140 0.0 4.8 0.00 0.00 0.00 33 1016.5
20260901170039 33 158 1.6 9.7 0.00 0.00 0.00 35 1016.6
20260901164544 33 0 0.0 8.0 0.00 0.00 0.00 37 1016.9
20260901163040 32 0 0.0 4.8 0.00 0.00 0.00 39 1016.9
20260901161545 32 127 0.0 3.2 0.00 0.00 0.00 39 1017.0
20260901160041 32 84 0.0 3.2 0.00 0.00 0.00 41 1017.0
20260901154625 31 93 0.0 3.2 0.00 0.00 0.00 44 1017.0
20260901153041 31 0 0.0 1.6 0.00 0.00 0.00 46 1016.9
20260901151545 30 0 0.0 1.6 0.00 0.00 0.00 51 1016.8
20260901150043 30 0 0.0 4.8 0.00 0.00 0.00 62 1017.0
20260901144541 29 0 0.0 3.2 0.00 0.00 0.00 64 1017.1
20260901143045 28 0 0.0 3.2 0.00 0.00 0.00 66 1017.1
20260901141540 27 0 0.0 4.8 0.00 0.00 0.00 69 1017.1
20260901140044 27 0 0.0 6.4 0.00 0.00 0.00 75 1017.2
20260901134539 25 0 0.0 4.8 0.00 0.00 0.00 82 1017.2
20260901133044 24 0 0.0 3.2 0.00 0.00 0.00 87 1017.1
20260901131542 24 0 0.0 1.6 0.00 0.00 0.00 88 1016.9
20260901130042 23 0 0.0 1.6 0.00 0.00 0.00 88 1016.7
20260901124541 23 0 0.0 0.0 0.00 0.00 0.00 88 1016.5
20260901123048 22 0 0.0 0.0 0.00 0.00 0.00 88 1016.4
20260901121559 22 0 0.0 0.0 0.00 0.00 0.00 87 1016.2
20260901120041 22 0 0.0 0.0 0.00 0.00 0.00 88 1016.1
20260901114540 22 0 0.0 0.0 0.00 0.00 0.00 87 1016.0
20260901113044 23 0 0.0 0.0 0.00 0.00 0.00 87 1015.9
20260901111540 22 0 0.0 0.0 0.00 0.00 0.00 86 1015.8
20260901110041 22 0 0.0 0.0 0.00 0.00 0.00 83 1015.6
20260901104554 22 0 0.0 0.0 0.00 0.00 0.00 74 1015.5
20260901103042 23 0 0.0 1.6 0.00 0.00 0.00 69 1015.5
20260901101542 26 0 0.0 1.6 0.00 0.00 0.00 59 1015.5
20260901100055 27 129 0.0 1.6 0.00 0.00 0.00 50 1015.5
20260901094542 27 117 0.0 3.2 0.00 0.00 0.00 49 1015.4
20260901093050 27 120 0.0 1.6 0.00 0.00 0.00 49 1015.6
20260901091541 28 0 0.0 1.6 0.00 0.00 0.00 48 1015.7
20260901090042 28 116 0.0 4.8 0.00 0.00 0.00 46 1015.7
20260901084541 28 56 1.6 6.4 0.00 0.00 0.00 45 1015.5
20260901083042 28 0 0.0 6.4 0.00 0.00 0.00 44 1015.5
20260901081540 28 105 3.2 6.4 0.00 0.00 0.00 43 1015.5
20260901080045 27 123 0.0 4.8 0.00 0.00 0.00 42 1015.4
20260901074542 27 112 0.0 3.2 0.00 0.00 0.00 43 1015.4
20260901073047 27 0 0.0 1.6 0.00 0.00 0.00 44 1015.3
20260901071542 26 0 0.0 1.6 0.00 0.00 0.00 45 1015.3
20260901070042 27 0 0.0 0.0 0.00 0.00 0.00 44 1015.3
20260901064545 27 0 0.0 0.0 0.00 0.00 0.00 42 1015.2
20260901063042 27 148 0.0 1.6 0.00 0.00 0.00 44 1015.2
20260901061541 27 0 0.0 0.0 0.00 0.00 0.00 46 1015.1
20260901060044 26 138 0.0 1.6 0.00 0.00 0.00 45 1014.9
20260901054538 25 0 0.0 0.0 0.00 0.00 0.00 44 1014.8
20260901053040 26 0 0.0 0.0 0.00 0.00 0.00 45 1014.6
20260901051545 26 0 0.0 0.0 0.00 0.00 0.00 43 1014.5
20260901050040 26 0 0.0 0.0 0.00 0.00 0.00 42 1014.4
20260901044553 26 0 0.0 0.0 0.00 0.00 0.00 41 1014.3
20260901043037 26 0 0.0 0.0 0.00 0.00 0.00 41 1014.3
20260901041542 27 0 0.0 0.0 0.00 0.00 0.00 40 1014.3
20260901040043 27 0 0.0 0.0 0.00 0.00 0.00 38 1014.3
20260901034539 27 0 0.0 0.0 0.00 0.00 0.00 36 1014.2
20260901033042 27 0 0.0 0.0 0.00 0.00 0.00 36 1014.3
20260901031544 27 0 0.0 0.0 0.00 0.00 0.00 36 1014.2
20260901030050 28 0 0.0 0.0 0.00 0.00 0.00 35 1014.1